CZ-3B DEB, 40815

Orbit data source: Space-Track

CZ-3B DEB, 40815 is space debris in HEO originally from a launch on Sat, 04 Sep 2010 UTC launched from the Xichang Space Center, China (XSC). Debris objects in space refer to the collection of defunct objects orbiting the Earth. Examples of debris include non-operational satellites, rocket bodies, and fragments generated from explosions, collisions, or faulty payload assembly.

Loading next visibility...
Identifier
40815, 2010-042Y
Orbit
HEO
Country
Flag of CNCN / PRC
Related business
Manufacturer
CALT
Mission
Spacecraft
Bus & Motor
Unknown
Mass
Unknown
Launch date (UTC)
2010-09-04 (15 years ago)
Launch vehicle
Unknown
Launch site
Xichang Space Center, China (XSC)
Object type
Payload
Rocket body
Debris
Shape & HBR
Unknown shape, 0.2 m
Radar Cross Section
Medium (>0.1 m² and <1 m²)

Expand to show TLE details & history
Last TLE update: 3 days ago

TLE from 3 days ago
0 CZ-3B DEB
1 40815U 10042Y   25304.85119022  .00000277  00000-0  88201-2 0  9994
2 40815  25.4416 194.3255 7377016 113.8234 335.6057  1.91041595  2415
Epoch: 2025-10-31T20:25Z
TLE epoch observation values (Epoch: 2025-10-31T20:25:42.835Z)
Latitude
0.00001°
Longitude
-152.46593°
Altitude
11,462.195 km
Speed
5.491 km/s
True Right ascension
12h 57m 24s
True Declination
0° 00' 00"
Sunlit
Object was in daylight at epoch
Visualization orbit readout
Latitude
Unknown
Longitude
Unknown
Altitude
Unknown
Speed
Unknown
Apparent Right ascension
Unknown
Apparent Declination
Unknown
Sunlit
N/A
Visualization observer readout
Local Sidereal Time
17:37:33
Azimuth
Unknown
Elevation
Unknown
Doppler factor
Unknown
Orbital elements
Apogee altitude
41,303.564 km
Perigee altitude
819.206 km
Semi-major axis
27,439.522 km
Eccentricity
0.7377
Inclination
25.4416°
RAAN
194.3255°
Arg. of periapsis
113.8234°
True anomaly
246.22885°
Mean anomaly
335.6057°
Eccentric anomaly
298.43919°
Mean motion
0.47751 °/min
Orbital period
753.92 mins
BSTAR
0.0088201
Loading maneuver chart data...
Computing Atmospheric mass density...
Loading historical data...
Loading historical data...
Loading historical data...
Loading historical data...
Loading historical data...
Loading historical data...
Loading historical data...

Documentation

Showing up to 5 results
|